When you browse on this site, cookies collect data to enhance your experience and personalize the content and advertising you see.
Visit our Privacy Policy to learn more. By continuing to use the site, you agree to this use of cookies and data.
  • In Czech Republic
  • List of Countries
  • For 7 days
  • Water Temperature
  • Weather Map
  • Weather Widgets
  • user-avatar
    Login

    Hourly Weather Wadzhir

    Today, 6 December, Friday

    Time Temperature Precipitation Wind Pressure Humidity
    00:00 +30°C° 0 mm 2 mps 735 mmHg 62%
    01:00 +30°C° 0 mm 3 mps 735 mmHg 65%
    02:00 +29°C° 0 mm 4 mps 734 mmHg 69%
    03:00 +29°C° 0 mm 4 mps 734 mmHg 73%
    04:00 +28°C° 0 mm 4 mps 734 mmHg 75%
    05:00 +28°C° 0 mm 3 mps 735 mmHg 78%
    06:00 +27°C° 0 mm 3 mps 735 mmHg 81%
    07:00 +28°C° 0 mm 3 mps 735 mmHg 76%
    08:00 +29°C° 0 mm 3 mps 736 mmHg 71%
    09:00 +30°C° 0 mm 3 mps 736 mmHg 67%
    10:00 +31°C° 0 mm 3 mps 736 mmHg 61%
    11:00 +32°C° 0 mm 2 mps 735 mmHg 56%
    12:00 +34°C° 0 mm 2 mps 735 mmHg 50%
    13:00 +35°C° 0 mm 3 mps 734 mmHg 47%
    14:00 +35°C° 0 mm 3 mps 733 mmHg 44%
    15:00 +36°C° 0 mm 4 mps 732 mmHg 41%
    16:00 +35°C° 0 mm 4 mps 732 mmHg 43%
    17:00 +35°C° 0 mm 3 mps 733 mmHg 46%
    18:00 +34°C° 0 mm 3 mps 733 mmHg 48%
    19:00 +34°C° 0 mm 3 mps 733 mmHg 50%
    20:00 +32°C° 0 mm 2 mps 733 mmHg 53%
    21:00 +32°C° 0 mm 1 mps 734 mmHg 56%
    22:00 +31°C° 0 mm 1 mps 734 mmHg 55%
    23:00 +31°C° 0 mm 1 mps 734 mmHg 55%

    Tomorrow, 7 December, Saturday

    Time Temperature Precipitation Wind Pressure Humidity
    00:00 +31°C° 0 mm 2 mps 734 mmHg 55%
    01:00 +30°C° 0 mm 2 mps 734 mmHg 56%
    02:00 +30°C° 0 mm 2 mps 733 mmHg 58%
    03:00 +30°C° 0 mm 2 mps 733 mmHg 59%
    04:00 +29°C° 0 mm 2 mps 733 mmHg 65%
    05:00 +28°C° 0 mm 3 mps 734 mmHg 72%
    06:00 +27°C° 0 mm 3 mps 734 mmHg 78%
    07:00 +28°C° 0 mm 3 mps 734 mmHg 74%
    08:00 +29°C° 0 mm 2 mps 735 mmHg 70%
    09:00 +30°C° 0 mm 2 mps 735 mmHg 66%
    10:00 +31°C° 0 mm 2 mps 735 mmHg 59%
    11:00 +32°C° 0 mm 2 mps 735 mmHg 52%
    12:00 +34°C° 0 mm 1 mps 734 mmHg 45%
    13:00 +35°C° 0 mm 2 mps 733 mmHg 41%
    14:00 +36°C° 0 mm 3 mps 732 mmHg 38%
    15:00 +37°C° 0 mm 4 mps 731 mmHg 34%
    16:00 +36°C° 0 mm 3 mps 731 mmHg 35%
    17:00 +36°C° 0 mm 3 mps 732 mmHg 37%
    18:00 +35°C° 0 mm 2 mps 732 mmHg 38%
    19:00 +35°C° 0 mm 2 mps 732 mmHg 39%
    20:00 +34°C° 0 mm 2 mps 733 mmHg 41%
    21:00 +32°C° 0 mm 2 mps 733 mmHg 43%
    22:00 +32°C° 0 mm 2 mps 733 mmHg 44%
    23:00 +31°C° 0 mm 2 mps 733 mmHg 46%

    Day after tomorrow, 8 December, Sunday

    Time Temperature Precipitation Wind Pressure Humidity
    00:00 +31°C° 0 mm 2 mps 734 mmHg 47%
    01:00 +30°C° 0 mm 3 mps 733 mmHg 52%
    02:00 +30°C° 0 mm 4 mps 733 mmHg 57%
    03:00 +29°C° 0 mm 4 mps 733 mmHg 62%
    04:00 +28°C° 0.1 mm 4 mps 733 mmHg 68%
    05:00 +28°C° 0.1 mm 4 mps 734 mmHg 73%
    06:00 +28°C° 0.1 mm 4 mps 734 mmHg 79%
    07:00 +28°C° 1.5 mm 5 mps 735 mmHg 74%
    08:00 +29°C° 1.5 mm 5 mps 735 mmHg 70%
    09:00 +30°C° 1.5 mm 6 mps 735 mmHg 66%
    10:00 +32°C° 1.3 mm 6 mps 735 mmHg 61%
    11:00 +33°C° 1.3 mm 6 mps 735 mmHg 57%
    12:00 +34°C° 1.3 mm 6 mps 734 mmHg 53%
    13:00 +34°C° 0.4 mm 6 mps 733 mmHg 51%
    14:00 +35°C° 0.4 mm 5 mps 733 mmHg 50%
    15:00 +35°C° 0.4 mm 5 mps 732 mmHg 49%
    16:00 +34°C° 0.9 mm 5 mps 732 mmHg 54%
    17:00 +33°C° 0.9 mm 6 mps 732 mmHg 60%
    18:00 +30°C° 0.9 mm 6 mps 732 mmHg 65%
    19:00 +30°C° 0.8 mm 7 mps 733 mmHg 68%
    20:00 +29°C° 0.8 mm 7 mps 733 mmHg 71%
    21:00 +29°C° 0.8 mm 7 mps 734 mmHg 73%
    22:00 +28°C° 0.8 mm 7 mps 734 mmHg 76%
    23:00 +27°C° 0.8 mm 7 mps 734 mmHg 78%

    9 December, Monday

    Time Temperature Precipitation Wind Pressure Humidity
    00:00 +27°C° 0.8 mm 7 mps 734 mmHg 80%
    01:00 +26°C° 7.6 mm 6 mps 734 mmHg 84%
    02:00 +26°C° 7.6 mm 5 mps 734 mmHg 88%
    03:00 +25°C° 7.6 mm 4 mps 733 mmHg 92%
    04:00 +25°C° 4.4 mm 5 mps 734 mmHg 91%
    05:00 +25°C° 4.4 mm 5 mps 734 mmHg 89%
    06:00 +25°C° 4.4 mm 5 mps 735 mmHg 88%
    07:00 +25°C° 0.6 mm 4 mps 736 mmHg 87%
    08:00 +25°C° 0.6 mm 3 mps 736 mmHg 86%
    09:00 +26°C° 0.6 mm 2 mps 737 mmHg 86%
    10:00 +27°C° 0 mm 3 mps 736 mmHg 81%
    11:00 +28°C° 0 mm 4 mps 736 mmHg 77%
    12:00 +29°C° 0 mm 4 mps 735 mmHg 72%
    13:00 +30°C° 0 mm 4 mps 735 mmHg 64%
    14:00 +32°C° 0 mm 4 mps 734 mmHg 57%
    15:00 +34°C° 0 mm 4 mps 733 mmHg 49%
    16:00 +33°C° 0 mm 3 mps 733 mmHg 52%
    17:00 +33°C° 0 mm 3 mps 733 mmHg 54%
    18:00 +31°C° 0 mm 2 mps 733 mmHg 57%
    19:00 +30°C° 0 mm 2 mps 734 mmHg 62%
    20:00 +29°C° 0 mm 2 mps 734 mmHg 67%
    21:00 +28°C° 0 mm 2 mps 735 mmHg 71%
    22:00 +28°C° 0 mm 2 mps 735 mmHg 74%
    23:00 +27°C° 0 mm 3 mps 735 mmHg 77%

    10 December, Tuesday

    Time Temperature Precipitation Wind Pressure Humidity
    00:00 +26°C° 0 mm 3 mps 734 mmHg 79%
    01:00 +26°C° 0 mm 2 mps 734 mmHg 80%
    02:00 +26°C° 0 mm 2 mps 734 mmHg 80%
    03:00 +26°C° 0 mm 1 mps 734 mmHg 80%
    04:00 +26°C° 0 mm 1 mps 734 mmHg 81%
    05:00 +26°C° 0 mm 1 mps 735 mmHg 81%
    06:00 +26°C° 0 mm 1 mps 735 mmHg 82%
    07:00 +27°C° 0 mm 1 mps 736 mmHg 77%
    08:00 +25°C° 0 mm 0 mps 736 mmHg 73%
    09:00 +26°C° 0 mm 0 mps 737 mmHg 68%
    10:00 +29°C° 0 mm 1 mps 736 mmHg 65%
    11:00 +30°C° 0 mm 1 mps 736 mmHg 62%
    12:00 +31°C° 0 mm 2 mps 735 mmHg 59%
    13:00 +32°C° 0 mm 2 mps 734 mmHg 57%
    14:00 +32°C° 0 mm 2 mps 734 mmHg 54%
    15:00 +34°C° 0 mm 2 mps 733 mmHg 52%
    16:00 +32°C° 0 mm 2 mps 733 mmHg 53%
    17:00 +32°C° 0 mm 2 mps 733 mmHg 54%
    18:00 +32°C° 0 mm 2 mps 733 mmHg 55%
    19:00 +32°C° 0 mm 2 mps 734 mmHg 58%
    20:00 +31°C° 0 mm 2 mps 734 mmHg 60%
    21:00 +30°C° 0 mm 2 mps 735 mmHg 63%
    22:00 +30°C° 0 mm 2 mps 735 mmHg 65%
    23:00 +30°C° 0 mm 2 mps 735 mmHg 66%

    11 December, Wednesday

    Time Temperature Precipitation Wind Pressure Humidity
    00:00 +29°C° 0 mm 2 mps 735 mmHg 68%
    01:00 +29°C° 0 mm 2 mps 734 mmHg 70%
    02:00 +28°C° 0 mm 3 mps 734 mmHg 72%
    03:00 +28°C° 0 mm 3 mps 734 mmHg 74%
    04:00 +27°C° 0.3 mm 3 mps 734 mmHg 77%
    05:00 +27°C° 0.3 mm 3 mps 735 mmHg 81%
    06:00 +27°C° 0.3 mm 3 mps 735 mmHg 84%
    07:00 +28°C° 0.8 mm 4 mps 736 mmHg 79%
    08:00 +28°C° 0.8 mm 4 mps 736 mmHg 75%
    09:00 +29°C° 0.8 mm 5 mps 737 mmHg 70%
    10:00 +30°C° 0.4 mm 4 mps 736 mmHg 66%
    11:00 +32°C° 0.4 mm 4 mps 736 mmHg 61%
    12:00 +33°C° 0.4 mm 3 mps 735 mmHg 57%
    13:00 +33°C° 0.2 mm 3 mps 735 mmHg 55%
    14:00 +34°C° 0.2 mm 3 mps 734 mmHg 54%
    15:00 +34°C° 0.2 mm 3 mps 733 mmHg 52%
    16:00 +34°C° 0 mm 3 mps 733 mmHg 54%
    17:00 +33°C° 0 mm 3 mps 733 mmHg 55%
    18:00 +33°C° 0 mm 3 mps 733 mmHg 57%
    19:00 +31°C° 0 mm 3 mps 734 mmHg 59%
    20:00 +31°C° 0 mm 2 mps 734 mmHg 62%
    21:00 +30°C° 0 mm 2 mps 734 mmHg 64%
    22:00 +30°C° 0 mm 2 mps 734 mmHg 66%
    23:00 +30°C° 0 mm 1 mps 734 mmHg 68%
    Show more